GFSNE_925_rhum_123.txt.gz
RH
83 80 91 99 82 72 72 82 93 95 92 93 93 88 70 63 54 58 64 61 74 83 92 94 90 87 84 80 78 71 71 68 67 68 70 83 86 91
63 68 75 97 66 57 86 85 87 92 94 78 77 65 45 44 41 41 47 54 65 84 94 99 100 98 94 88 84 82 79 72 73 71 69 79 96 91
57 64 83 71 56 52 72 79 73 90 96 86 73 73 70 61 54 52 66 72 84 80 83 86 92 94 95 99 100 99 92 86 82 78 80 84 93 96
67 69 66 60 59 72 87 70 83 91 93 94 87 82 83 73 89 74 65 60 48 47 52 81 100 98 95 98 99 99 100 97 87 83 83 84 86 95
70 68 70 64 70 70 73 88 80 75 78 93 94 78 82 85 72 63 57 52 39 24 33 99 96 98 98 100 100 100 100 99 100 89 81 86 86 95
66 68 68 69 79 68 81 78 68 65 72 84 89 86 78 72 73 83 85 82 64 39 98 72 55 48 62 78 98 100 100 100 100 100 95 92 95 97
67 66 64 69 71 78 76 76 70 68 72 75 80 80 80 82 89 86 92 89 80 86 66 55 54 36 28 30 57 91 98 100 100 95 100 100 100 100
68 65 65 66 64 62 75 80 75 71 71 76 80 85 81 79 82 90 92 91 89 72 88 91 87 84 75 80 86 92 99 99 100 100 100 100 97 100
74 73 72 71 71 67 68 74 79 79 78 75 78 77 83 82 88 87 87 93 93 89 89 86 83 84 89 79 68 81 68 83 93 97 100 100 100 100
72 73 76 80 81 82 77 75 72 71 75 75 77 79 82 89 82 80 86 87 86 78 88 89 75 95 79 55 50 98 99 90 85 93 99 100 100 99
75 82 88 83 81 78 77 76 80 80 77 76 85 87 89 91 79 79 71 98 88 79 71 88 71 76 70 53 88 84 80 75 81 93 99 100 100 100
78 80 74 78 76 75 76 77 90 89 79 89 90 86 82 82 81 66 72 99 100 87 62 82 85 92 91 64 76 54 68 47 52 62 96 100 97 98
82 80 77 82 80 79 79 84 86 84 94 87 84 85 80 74 72 68 69 80 94 98 79 90 86 91 88 91 81 83 82 81 77 55 45 94 100 100
84 80 80 88 86 78 82 84 79 75 84 88 80 83 73 69 77 70 64 67 69 80 80 78 98 98 98 92 87 75 79 81 86 88 91 90 99 100
89 86 82 84 87 88 85 80 78 82 84 90 93 92 90 93 86 73 62 64 62 68 76 62 82 100 100 98 94 92 85 82 78 83 99 90 86 100
86 88 97 91 84 78 76 78 80 87 97 94 98 98 95 82 74 68 81 81 92 90 83 77 84 87 100 100 99 94 92 92 85 75 74 80 76 99
83 95 85 75 79 83 89 90 87 86 85 86 86 86 86 85 85 89 95 92 100 95 95 91 84 83 92 97 98 93 93 93 91 95 89 86 95 93
92 79 81 83 89 91 93 94 93 89 89 89 92 92 96 94 93 95 92 96 96 94 97 96 91 92 85 85 90 98 91 92 97 96 86 91 88 93
78 82 88 90 90 91 92 92 94 94 92 93 94 93 93 97 100 100 100 99 95 89 89 90 94 99 94 92 73 71 91 94 97 100 85 92 91 90
83 87 89 91 91 93 94 96 97 99 99 99 99 97 96 99 100 98 98 95 93 90 90 94 99 99 96 91 91 86 81 90 100 96 89 96 86 85
87 89 90 92 94 96 98 99 100 100 100 98 98 98 97 99 98 100 100 90 90 95 94 87 87 89 96 98 96 85 81 82 82 91 91 99 99 99
90 93 95 98 100 99 98 99 100 100 100 100 100 100 98 97 98 100 100 98 96 96 93 88 90 96 98 96 92 88 88 87 81 76 78 92 98 97
94 99 100 100 99 99 98 99 100 100 100 98 98 97 97 99 98 99 100 100 98 97 95 95 93 93 96 96 92 93 92 97 90 94 93 89 98 94

GFSNE_925_rhum_126.txt.gz
RH
67 75 100 90 77 83 86 96 99 98 98 99 99 78 64 54 61 45 49 51 51 82 95 85 92 95 97 98 86 83 78 74 76 77 78 76 72 76
67 81 76 65 60 66 90 81 87 98 98 92 86 79 68 63 67 58 62 67 64 63 56 71 81 94 93 96 98 97 92 84 78 76 79 76 71 74
62 58 55 52 58 68 84 70 82 92 95 85 73 60 46 52 56 46 42 42 37 30 30 40 100 100 100 99 97 93 96 100 100 94 84 77 75 75
69 66 64 56 67 64 74 86 86 82 93 97 79 64 64 70 50 40 42 42 31 21 20 84 99 96 94 93 99 100 100 100 99 100 98 95 88 85
64 65 67 69 77 71 79 77 67 64 68 78 83 69 64 61 58 57 55 52 36 37 94 87 56 35 30 37 50 83 98 99 100 100 99 100 96 89
64 64 64 71 78 79 82 75 70 66 68 71 72 72 70 68 73 83 83 72 48 69 60 35 31 35 32 37 33 58 68 96 97 99 100 100 100 100
65 64 66 70 72 79 82 82 77 72 70 73 77 81 77 78 82 87 90 84 67 70 63 54 53 47 47 63 74 66 75 59 85 92 98 100 100 100
75 74 70 69 67 62 79 83 83 80 79 80 83 87 80 79 83 91 86 90 94 71 85 76 68 67 79 74 67 45 79 92 85 81 91 97 99 100
73 73 73 75 80 78 80 78 75 76 83 84 88 80 82 80 87 86 81 92 91 62 80 78 67 80 56 34 28 56 100 100 100 99 98 99 100 99
71 74 83 87 79 82 80 77 75 76 79 80 83 86 88 87 84 85 82 82 71 58 70 97 74 69 52 32 62 100 90 81 79 82 92 96 100 100
75 77 83 78 77 78 76 76 78 76 73 73 84 92 98 95 92 93 80 86 91 80 74 84 69 82 69 46 59 64 45 38 67 80 59 70 92 98
81 81 78 82 80 78 77 87 93 90 80 86 95 86 78 73 78 88 76 90 98 87 65 86 84 85 92 64 57 49 50 60 83 78 61 54 94 97
80 83 81 83 82 83 88 84 84 82 90 81 86 86 78 67 63 71 79 75 85 95 61 86 83 95 88 84 80 80 76 70 64 67 57 50 51 87
82 86 88 89 88 88 91 84 77 75 86 83 85 80 76 83 86 89 84 78 72 76 65 64 100 99 97 88 84 81 86 85 76 66 73 88 68 65
80 85 81 83 87 90 82 80 77 78 80 96 99 93 90 93 94 91 86 70 68 71 64 61 88 88 100 92 92 91 88 89 79 89 80 70 71 64
84 89 97 94 79 71 72 66 80 85 93 98 96 93 89 82 80 74 78 79 94 88 83 81 88 90 95 98 94 94 94 91 84 90 93 92 86 78
85 99 88 76 71 73 76 78 82 82 88 88 89 95 95 94 94 91 89 91 98 90 91 96 94 93 92 88 97 87 90 92 92 94 95 98 95 86
96 90 82 79 85 88 91 92 92 92 89 91 94 96 99 99 100 99 98 96 97 92 90 91 92 93 92 84 88 93 98 100 97 90 93 100 96 83
86 80 83 87 91 93 94 96 97 96 95 98 98 98 97 100 100 98 100 100 96 92 91 90 90 97 94 90 74 74 79 84 92 97 94 97 98 89
76 84 88 91 93 96 98 100 100 100 100 100 100 100 96 96 100 100 100 99 98 95 94 91 90 98 96 90 90 86 80 80 85 92 91 90 85 85
86 88 90 94 96 99 100 100 100 100 100 98 99 100 99 100 99 100 100 97 94 96 95 92 87 86 95 99 95 86 82 77 81 93 95 97 93 90
86 91 93 96 100 100 100 100 100 100 100 100 100 100 100 100 100 100 99 99 98 98 97 95 93 95 94 97 89 86 85 85 82 82 83 91 97 96
89 95 97 98 100 100 99 99 100 100 100 100 99 100 100 98 98 98 99 100 100 99 99 98 98 98 97 97 92 92 91 91 91 93 96 91 81 87

GFSNE_925_rhum_129.txt.gz
RH
75 80 68 65 68 95 93 95 94 93 94 99 100 98 95 92 94 77 73 66 82 64 63 60 88 100 100 95 96 93 91 88 83 80 80 80 79 81
74 71 70 72 82 96 87 91 96 91 88 99 100 89 82 81 66 54 51 37 30 32 47 32 96 99 100 100 100 100 99 99 96 91 86 79 76 76
58 73 71 75 80 85 89 93 90 90 80 80 81 57 65 55 49 48 44 50 24 21 25 90 94 82 80 91 91 99 99 99 100 100 100 99 96 88
68 67 73 78 80 85 90 82 79 81 80 75 80 82 76 56 51 52 52 42 34 35 98 78 59 45 40 40 52 60 78 95 99 100 100 100 99 100
62 64 71 81 85 88 90 82 79 74 80 78 77 85 82 79 73 76 70 47 42 65 68 36 34 38 61 77 58 86 63 62 84 97 100 99 99 99
60 62 66 76 84 82 81 88 82 78 78 76 74 78 83 73 75 88 82 76 64 74 52 35 28 28 44 82 55 64 59 52 61 77 88 94 98 100
69 66 64 69 74 84 78 83 90 84 82 79 77 81 76 74 76 86 86 83 70 67 67 68 57 60 64 45 48 55 42 97 99 98 96 95 90 91
74 70 68 67 67 69 86 88 84 81 85 87 84 80 78 80 87 89 84 83 76 80 77 70 64 72 71 59 32 50 90 99 94 95 94 97 100 94
71 70 72 80 82 76 81 81 78 80 85 86 86 81 84 83 92 89 90 88 81 75 78 66 68 72 62 54 35 94 96 87 82 56 79 78 82 91
72 73 78 82 76 82 83 81 80 76 73 80 91 94 96 93 88 99 100 95 90 78 76 69 75 72 67 41 41 88 63 49 63 79 84 75 67 67
76 76 79 89 84 80 77 81 80 85 75 74 87 91 92 95 89 99 98 93 79 72 78 88 74 78 78 60 67 63 62 64 78 80 78 86 88 88
83 82 81 87 83 78 83 91 93 83 86 94 95 92 82 79 76 87 91 92 83 80 75 82 74 82 78 78 70 54 67 58 78 80 80 84 87 94
76 78 85 89 86 85 86 91 93 83 79 86 88 89 87 84 83 84 90 96 93 91 82 83 84 80 79 76 75 72 74 78 77 72 86 80 98 97
77 78 78 87 95 85 86 85 79 79 87 85 83 80 88 91 94 88 92 96 96 98 88 92 98 88 89 89 80 72 77 82 84 93 83 93 78 68
81 87 81 88 87 92 78 77 76 79 84 84 80 85 94 98 86 80 70 70 71 69 71 84 99 96 100 96 89 84 85 77 88 97 100 83 93 90
80 81 96 98 92 79 74 73 81 87 91 90 86 87 88 93 92 93 92 89 90 88 94 93 94 100 100 98 96 92 86 87 83 92 96 96 98 100
88 98 99 88 78 76 78 83 86 90 92 92 91 89 88 86 88 91 94 93 93 90 85 85 93 99 98 98 97 92 90 87 86 92 96 89 92 98
94 100 86 78 78 80 83 84 89 92 92 94 96 97 98 98 97 98 100 100 95 90 89 88 90 88 87 86 93 99 94 94 92 94 94 95 88 86
97 86 80 82 86 89 91 94 95 96 99 100 100 100 100 100 100 99 98 98 96 94 93 94 95 93 91 91 72 74 79 83 92 92 86 87 88 84
82 80 86 88 91 94 97 99 100 100 100 100 100 100 100 100 100 99 99 98 97 95 95 96 98 96 96 90 86 82 81 87 88 90 90 91 93 91
84 87 90 94 97 100 100 100 100 100 100 100 100 100 99 100 99 100 100 96 95 95 93 90 90 93 96 99 95 84 80 83 88 92 90 92 90 87
87 92 91 96 100 100 100 100 100 100 100 100 100 99 99 99 99 98 98 98 96 96 96 96 96 98 100 98 89 85 85 84 84 90 93 93 93 88
83 88 92 97 100 100 100 100 100 100 100 100 99 98 98 98 98 99 100 100 100 98 98 98 97 99 100 97 92 91 90 91 89 91 91 94 97 96

GFSNE_925_rhum_132.txt.gz
RH
68 63 66 70 79 85 82 87 89 88 88 97 98 98 98 96 75 84 88 89 90 95 88 84 100 100 100 98 98 99 98 95 93 91 87 88 93 94
56 57 56 60 64 71 74 71 73 77 83 93 84 80 84 82 68 73 66 72 65 74 86 92 97 93 88 92 96 99 100 100 100 100 100 100 96 86
58 62 59 62 62 69 70 66 64 65 58 48 58 62 66 70 78 81 73 64 50 69 98 84 84 81 73 86 79 83 85 96 99 100 100 100 100 100
60 62 62 62 66 70 71 66 64 64 63 59 59 67 66 68 74 78 77 71 73 63 94 71 71 74 80 82 82 94 99 77 81 90 97 98 100 100
62 61 62 64 64 67 68 70 72 68 70 68 63 69 72 69 73 77 73 79 74 83 76 63 68 67 65 86 90 98 87 55 48 70 81 89 96 98
67 68 66 68 67 66 62 67 68 70 69 68 67 69 72 71 66 68 68 71 75 73 74 68 67 65 74 74 68 62 35 40 100 99 99 99 96 95
65 67 68 70 71 86 76 72 68 74 77 76 72 68 62 63 67 71 69 69 68 76 68 65 60 63 60 59 52 63 75 94 96 97 97 100 100 100
65 65 65 73 77 86 86 89 88 76 71 68 72 72 65 63 64 67 72 74 70 65 68 65 58 58 56 53 58 67 97 95 92 88 80 74 82 75
71 69 67 66 86 73 72 75 76 77 81 78 70 68 67 69 72 76 75 76 73 74 77 71 61 61 60 54 62 72 93 86 69 58 75 79 70 66
75 73 70 70 75 80 74 70 71 70 72 74 72 72 76 79 84 90 97 98 89 78 70 74 63 66 66 66 64 71 88 72 64 74 82 82 82 83
71 72 73 75 75 82 77 75 74 73 72 79 83 89 90 90 93 88 85 82 76 70 68 73 68 66 68 70 70 77 69 72 73 79 83 82 83 85
69 71 77 84 84 80 81 83 81 76 71 74 75 72 72 72 80 82 76 79 77 75 68 80 69 72 69 65 73 66 67 64 74 75 76 80 88 87
70 63 68 77 81 82 89 87 84 81 72 69 68 69 68 67 67 71 76 80 79 77 72 77 90 83 79 77 69 68 67 66 70 75 79 83 88 100
70 69 72 73 86 88 85 83 80 77 70 66 66 64 65 72 78 83 90 95 95 93 90 92 98 90 91 87 80 70 69 71 74 78 81 98 90 82
75 76 81 81 87 85 83 78 76 66 63 68 68 70 75 81 84 87 87 88 90 91 90 91 92 94 93 90 84 84 80 76 82 86 84 85 86 87
82 80 82 88 88 88 75 67 68 70 73 76 74 74 76 80 81 81 84 83 84 82 80 84 90 93 95 88 89 89 84 84 78 83 86 87 89 91
88 90 90 87 77 66 63 67 71 74 78 80 81 80 80 79 81 82 86 88 91 86 81 81 86 90 93 95 95 86 84 82 82 84 87 89 86 86
80 87 85 76 68 64 68 70 75 80 82 85 89 90 91 92 93 92 94 94 92 90 87 84 85 90 91 90 88 92 89 86 83 83 80 87 89 85
82 82 78 72 70 74 78 81 83 85 91 97 99 99 100 99 97 95 94 92 91 90 90 89 92 93 89 88 70 72 82 84 84 84 83 81 84 85
82 79 74 73 76 80 84 87 89 95 98 98 100 100 100 98 96 94 94 95 93 90 90 91 91 92 93 87 88 80 79 84 86 87 86 84 84 86
82 76 75 79 83 88 91 96 100 100 100 99 97 99 98 98 96 95 95 92 93 95 92 88 86 89 97 98 95 85 81 83 90 90 90 91 88 87
80 77 79 84 90 96 100 100 100 100 99 99 99 99 99 98 97 97 96 96 93 93 93 92 94 95 96 94 89 85 85 84 84 88 90 91 89 85
81 83 87 92 98 100 100 100 100 100 100 100 100 100 100 98 98 98 98 97 97 96 95 94 94 98 96 94 90 91 90 90 88 89 88 92 97 97